Simultaneous Nadir Overpasses (SNOs) Predictions

Prediction of SNOs between GOES-16 and FY3D Satellite Orbit:

Table of predicted SNOs for the next 14.0 days since TLE Epoch: 9/14/2024
Index Date Time (GOES-16) GOES-16 Lat,Lon FY3D Lat,Lon Distance(km) Time Diff (sec)
1 09/14/2024 19:56:07 -0.04, -75.20 -0.98, -79.45 483.81 80
2 09/15/2024 19:40:10 -0.04, -75.20 0.04, -74.93 31.73 80
3 09/18/2024 07:40:49 0.03, -75.22 0.12, -75.68 52.48 80
4 09/19/2024 07:24:52 0.03, -75.23 -0.92, -71.17 463.84 80
5 09/20/2024 19:44:18 -0.03, -75.24 -0.30, -76.47 140.09 80
6 09/21/2024 19:28:20 -0.03, -75.25 0.69, -71.95 376.53 80
7 09/23/2024 07:47:37 0.03, -75.27 0.46, -77.22 222.39 80
8 09/24/2024 07:31:39 0.03, -75.28 -0.55, -72.70 294.39 80
9 09/25/2024 19:51:05 -0.02, -75.30 -0.63, -78.01 308.73 80
10 09/26/2024 19:35:06 -0.02, -75.32 0.40, -73.49 208.58 80
